RH
64 65 67 76 83 88 92 93 95 95 93 91 84 69 69 69 72 70 72 69 67 68 71 71 70 72 82 82 82 79 82 88
72 70 68 75 85 87 88 84 86 85 87 84 83 83 86 80 56 57 57 57 59 64 65 72 77 76 79 79 85 85 86 95
71 76 84 84 88 86 78 75 69 76 67 75 78 78 71 70 65 67 65 64 63 62 70 71 70 72 80 90 94 94 96 96
75 77 88 86 79 67 62 64 64 66 69 70 73 74 74 70 71 72 70 66 66 68 74 81 88 91 95 94 94 91 96 95
69 75 72 69 72 69 64 64 64 63 64 67 66 70 70 76 76 76 74 69 72 77 83 88 92 93 93 94 88 94 94 96
64 60 61 64 69 69 69 66 65 68 69 72 74 75 75 74 74 75 73 74 79 82 85 89 91 94 94 95 96 96 96 96
64 68 64 69 74 68 63 59 64 71 72 72 72 71 70 72 76 77 77 80 91 89 85 89 91 92 93 95 95 94 96 97
70 68 64 64 68 66 62 64 72 71 69 69 70 72 74 77 82 82 80 84 94 90 87 88 92 92 91 92 93 94 96 97
60 61 64 65 63 65 65 71 68 58 54 58 63 63 68 73 78 84 86 88 89 89 91 92 90 89 90 90 94 95 95 97
54 64 62 54 59 68 68 58 51 52 54 57 58 62 67 76 78 82 84 86 84 91 92 92 91 92 92 91 96 95 95 96
59 64 59 59 66 63 59 50 48 49 51 55 55 62 74 77 82 82 84 84 83 86 89 91 93 92 92 92 92 90 91 94
63 60 57 54 53 48 49 46 45 47 46 53 61 62 75 81 83 84 87 88 88 89 89 91 90 86 85 88 86 80 76 75
59 55 56 56 59 47 47 48 48 48 50 54 57 63 69 82 87 88 90 88 83 85 87 89 85 77 75 72 74 75 74 75
66 63 62 57 59 62 60 58 55 50 51 56 60 61 67 80 85 88 88 86 83 87 86 87 77 67 69 72 72 72 72 73
65 61 59 58 59 65 68 68 64 60 58 59 63 65 66 76 83 87 89 87 92 86 86 74 68 68 65 66 68 73 76 74
67 65 63 64 66 69 70 66 63 63 62 64 68 71 72 77 82 84 86 91 83 86 88 71 71 66 60 74 72 76 79 79
69 67 66 67 68 70 59 54 53 56 55 67 70 70 72 80 83 85 87 93 95 93 84 75 71 57 75 74 79 87 80 80
76 74 73 69 66 55 46 48 49 51 62 68 73 75 75 75 76 91 95 96 94 86 74 74 73 76 75 73 79 90 93 93
74 72 62 58 46 40 46 43 48 54 67 73 78 81 85 85 90 93 92 94 93 88 81 78 76 70 78 78 84 93 93 90
Wind_Speed
7 11 13 13 13 11 10 7 6 6 2 4 4 7 7 7 6 6 7 6 8 6 5 5 4 4 4 4 2 2 2 2
6 10 13 14 11 11 7 6 4 3 1 3 4 4 3 4 5 7 7 6 6 6 4 5 4 4 3 4 3 4 2 4
8 9 10 11 8 7 6 5 5 3 4 3 3 3 4 4 3 5 5 6 6 5 4 3 4 3 5 5 5 4 2 4
8 8 6 6 7 7 6 6 7 5 5 3 3 4 3 3 2 2 2 4 4 4 5 4 5 4 3 2 3 3 3 2
7 6 6 7 5 5 7 7 7 5 6 5 5 4 3 2 2 1 2 4 4 4 5 4 3 2 4 3 4 3 3 3
8 6 7 5 5 7 7 7 6 4 4 4 4 3 1 1 1 2 2 2 4 4 4 5 5 3 3 4 4 4 3 2
3 4 5 5 3 4 5 7 5 5 6 6 7 6 3 2 2 2 2 2 3 4 3 3 2 1 1 1 2 3 3 3
7 7 6 4 3 4 4 5 5 5 6 6 6 6 5 4 0 2 1 0 1 2 1 0 1 2 3 3 3 3 3 2
7 5 3 3 3 4 5 6 5 5 5 5 5 4 2 1 1 2 2 2 3 3 3 4 5 5 4 4 2 3 3 4
4 7 5 4 4 4 6 6 4 4 4 4 4 1 1 3 3 3 3 4 3 5 6 5 5 6 6 5 3 5 5 5
7 7 6 5 2 2 3 4 4 3 2 1 2 3 5 5 4 6 5 5 4 5 6 6 5 6 6 5 4 4 4 3
8 7 5 5 3 4 2 2 2 1 3 3 4 5 5 5 6 6 6 5 5 6 6 5 5 5 3 2 3 2 3 3
6 6 7 6 6 4 4 4 5 5 5 5 7 6 5 6 6 7 6 6 4 5 4 5 6 3 2 1 3 3 3 3
6 6 5 3 3 3 3 4 7 7 6 7 7 7 5 7 7 6 5 5 5 5 4 4 5 3 4 3 3 2 2 4
3 3 3 3 3 6 6 6 5 5 6 7 7 7 7 7 7 6 6 6 6 5 5 5 3 3 3 3 2 1 4 5
2 2 4 5 5 5 4 4 5 4 5 5 6 6 5 6 6 6 5 5 5 2 4 6 4 3 2 2 2 4 5 6
3 5 6 6 4 4 4 4 5 4 6 5 5 6 6 6 6 5 3 3 4 5 5 0 4 1 3 3 5 4 6 6
4 4 5 4 3 2 4 5 6 6 4 4 5 6 6 6 6 3 2 3 0 2 4 3 2 2 4 8 9 4 5 5
5 3 3 2 3 5 6 7 7 5 4 4 5 6 6 7 6 3 2 1 3 4 2 3 2 2 6 7 8 5 5 6
Wind_Direction
58 73 78 77 77 75 72 64 50 89 23 19 38 57 51 46 41 49 52 53 54 63 53 40 36 41 25 10 344 317 298 321
43 63 81 85 77 78 72 74 14 74 23 65 50 54 23 33 54 55 59 66 66 64 61 44 32 40 358 352 328 341 327 328
62 64 68 80 92 96 95 113 116 94 93 90 106 123 78 88 70 59 65 73 71 74 69 46 26 15 19 17 16 330 322 10
96 90 87 110 118 129 120 96 86 81 101 91 69 57 43 45 36 72 53 88 82 78 67 64 53 50 38 5 355 7 319 316
128 141 133 123 126 137 129 130 121 121 135 121 144 157 155 184 167 155 83 50 51 73 83 83 81 67 37 350 355 337 349 331
149 154 134 130 146 142 147 134 130 123 107 107 108 90 78 97 91 129 121 81 63 55 56 52 45 33 18 14 3 0 347 309
122 119 125 125 130 115 118 112 88 87 94 87 98 106 101 70 17 12 354 46 50 58 65 63 53 45 6 328 320 313 292 288
175 170 172 154 149 126 83 82 88 84 89 88 91 92 77 72 111 241 317 175 198 224 201 268 239 239 246 236 248 254 244 240
197 206 81 67 100 66 92 113 112 105 99 92 84 82 101 202 240 167 170 181 209 221 233 232 237 245 261 248 255 264 267 265
29 66 80 51 55 74 138 149 138 101 84 69 67 57 200 183 172 184 197 215 238 236 232 242 252 264 272 278 265 263 245 252
77 74 59 59 100 137 99 78 84 84 81 223 185 228 214 201 204 217 219 229 235 238 242 233 241 248 258 257 258 269 279 307
112 107 85 71 75 53 41 36 44 291 255 252 240 241 229 231 229 226 218 231 239 241 239 244 236 250 275 280 296 4 78 68
72 55 55 35 17 347 331 316 286 267 262 257 259 264 258 243 242 239 234 242 249 273 298 295 294 315 349 106 107 67 49 19
53 42 36 14 342 319 297 295 278 263 298 285 294 297 299 264 251 253 253 259 270 287 276 260 252 233 159 115 105 78 7 296
48 23 349 309 330 357 347 324 322 300 310 310 302 299 302 285 265 251 245 250 273 276 296 281 268 185 148 131 108 354 290 287
7 318 324 346 339 323 337 350 345 328 323 327 315 307 305 301 284 278 287 287 286 64 332 283 248 158 164 134 322 295 285 287
337 360 344 331 337 3 352 338 325 322 349 349 342 339 335 325 309 285 302 358 332 338 286 33 232 202 173 308 280 271 279 287
309 309 298 305 357 347 331 317 324 336 331 341 334 319 305 296 288 322 334 284 25 248 230 133 206 323 295 315 328 323 306 301
289 294 343 3 353 345 334 339 320 317 319 294 299 299 294 299 312 296 277 283 260 285 95 114 70 13 353 1 32 8 327 305